Theta_e
300 298 296 299 300 299 296 295 295 299 295 294 295 295 297 300 300 300 300 302 299 296 298 297 295 293 292 292 292 292 292 292 292 292 291 291 291 291 291 291 290 289 288 288
297 294 301 298 297 295 295 295 295 297 293 292 293 292 296 297 298 300 300 302 301 297 296 295 292 291 291 291 291 291 291 292 291 291 290 290 289 290 290 290 289 289 288 287
295 298 295 296 294 293 294 294 296 293 292 291 289 291 292 295 295 297 298 300 300 298 295 293 291 291 290 290 291 291 291 291 291 290 289 288 288 287 287 288 288 288 287 287
296 297 295 294 294 295 293 296 293 291 290 289 290 286 293 294 294 296 299 299 297 296 295 293 291 290 289 290 291 291 290 289 289 289 288 287 286 286 287 287 287 286 286 285
295 292 292 293 295 295 294 291 291 289 289 286 290 285 291 288 290 295 299 301 299 298 296 293 291 290 290 291 291 290 290 289 288 288 288 287 286 286 286 285 284 285 285 285
295 293 294 296 290 291 290 290 288 286 286 283 289 287 290 291 292 295 299 298 298 297 296 295 292 290 290 290 290 290 289 287 287 287 287 286 285 284 283 283 283 283 283 283
292 292 292 292 291 291 290 291 287 287 284 284 286 284 289 294 295 296 299 300 297 297 295 293 290 288 288 289 289 289 288 286 287 286 285 284 284 283 282 282 281 281 281 281
289 288 289 292 295 294 289 292 288 283 284 286 282 282 290 294 297 298 294 295 293 294 294 292 290 289 289 288 289 288 288 286 285 285 284 283 282 281 281 280 280 279 279 280
288 290 289 289 290 293 287 286 292 288 279 282 288 292 293 292 292 292 293 294 294 293 292 291 291 290 288 288 288 288 287 286 284 283 283 281 281 279 279 279 278 278 279 278
293 287 289 286 289 287 288 290 285 287 282 281 285 287 288 291 292 292 291 293 296 295 293 291 290 289 289 289 289 288 288 286 284 282 281 280 279 278 278 277 277 277 278 277
294 291 287 287 286 288 285 286 285 286 285 283 281 286 291 292 294 293 295 297 298 296 294 292 290 290 289 289 288 288 287 284 282 281 280 278 277 277 276 276 276 276 276 276
294 291 288 289 286 287 290 289 289 284 283 284 285 286 293 294 295 294 296 295 296 296 296 294 291 289 288 287 287 286 285 282 281 280 278 277 276 275 275 275 275 275 274 275
291 287 285 287 284 284 285 286 288 289 288 284 282 284 295 296 294 294 295 296 295 295 295 293 290 288 287 287 285 285 283 281 279 277 276 275 275 274 274 274 274 273 273 273
295 289 288 284 287 286 285 286 286 287 284 285 285 288 292 294 294 296 295 293 294 295 294 295 290 288 287 286 285 283 281 280 277 276 275 274 274 273 273 273 272 272 272 271
292 286 288 290 291 291 289 288 287 284 286 284 287 288 292 294 295 296 297 297 296 296 293 293 290 288 286 285 283 282 280 277 276 274 274 274 273 272 272 271 271 271 270 270
289 286 288 285 289 288 286 288 289 289 288 288 287 286 293 295 296 295 295 295 294 295 296 293 288 286 284 283 281 279 278 275 274 274 273 272 271 271 270 270 269 269 269 269
287 286 284 281 287 286 282 285 287 288 291 290 286 290 295 294 294 294 296 295 294 294 295 295 287 285 283 281 280 278 276 274 273 273 272 270 270 269 268 268 267 267 267 267
288 286 286 282 284 275 287 293 291 289 290 292 292 293 294 295 296 296 298 296 295 295 295 293 289 286 283 282 279 277 274 273 272 272 269 269 268 267 266 266 266 266 267 267
292 288 283 280 280 285 285 289 288 286 287 292 291 292 294 295 294 294 297 297 296 297 298 298 290 286 282 280 277 273 272 272 271 269 268 268 267 265 265 263 264 265 266 266
290 291 284 282 278 277 287 292 294 290 282 293 292 292 292 291 287 292 298 297 296 296 294 285 283 281 279 276 273 272 271 271 269 269 268 267 266 263 263 264 264 265 264 265
284 284 281 281 280 284 291 290 290 280 285 294 294 293 292 290 293 296 296 291 287 285 282 281 279 276 275 273 273 272 270 269 270 268 266 265 264 263 263 262 264 263 263 264
285 282 281 282 279 277 294 293 286 292 296 296 296 295 292 293 294 293 294 284 281 278 277 276 275 273 271 273 273 270 269 268 266 265 265 263 262 263 263 260 262 262 263 263
284 289 286 287 286 294 296 294 296 297 296 297 296 296 294 293 292 292 290 282 279 278 276 275 273 270 271 272 273 270 267 265 264 263 261 261 261 262 261 261 262 264 264 264
288 293 286 288 292 293 293 296 297 298 296 296 297 296 295 293 293 290 288 282 277 276 274 273 271 269 269 270 271 267 265 264 261 261 261 262 262 262 261 263 264 263 265 265
285 285 284 283 287 289 294 295 296 295 295 292 293 293 294 294 291 292 290 285 279 276 274 272 271 269 268 268 265 264 263 261 261 262 262 262 262 262 262 263 263 264 266 267
283 282 281 282 290 289 290 293 293 291 293 295 295 295 295 295 292 292 289 287 279 275 272 271 271 268 266 265 263 262 261 262 262 262 262 262 262 262 261 262 262 263 265 266
Wind_Speed
2 7 17 17 17 14 7 8 16 14 4 5 16 20 25 23 20 26 25 21 17 20 17 19 20 19 18 17 17 16 15 13 9 7 5 4 4 3 3 3 4 6 5 6
4 16 17 1 6 9 8 13 20 12 2 7 14 21 24 24 27 25 25 23 16 16 15 17 19 21 20 20 18 17 15 14 10 6 4 2 2 2 3 4 6 6 5 6
16 10 2 8 8 11 11 18 14 10 5 7 12 18 8 8 12 15 22 19 14 16 16 18 21 23 20 21 20 18 16 14 11 9 5 3 2 3 5 6 4 4 6 6
10 3 8 7 11 12 13 9 11 7 5 12 4 22 10 9 11 13 22 12 12 15 14 16 20 22 24 21 19 18 16 14 11 10 7 8 6 6 4 3 5 6 7 7
6 8 9 10 9 12 5 2 4 3 8 6 11 14 9 2 7 19 21 11 15 14 15 17 20 20 21 18 18 17 16 14 12 12 10 8 9 5 4 5 7 8 8 9
7 1 5 4 4 0 9 3 2 2 3 11 17 16 5 5 7 9 12 10 9 12 13 12 13 16 18 18 18 17 18 16 15 14 14 12 10 8 6 7 5 6 7 7
5 9 3 4 5 3 5 5 7 7 6 13 4 10 19 14 13 14 18 7 7 8 10 12 16 17 18 21 20 17 20 18 16 15 14 12 11 10 10 8 7 7 7 7
7 15 15 13 16 7 12 8 7 13 13 21 7 14 13 10 15 17 7 5 4 7 8 11 15 17 19 20 22 22 21 19 17 15 14 12 11 7 7 7 5 6 8 9
9 16 3 1 2 5 9 10 2 4 3 9 11 22 8 6 11 9 15 12 14 11 11 13 15 16 18 20 23 22 22 19 18 16 13 12 10 9 7 8 7 8 9 8
4 10 4 3 2 1 4 5 5 3 7 17 25 31 18 11 16 10 12 16 16 10 10 12 14 17 16 18 20 22 22 21 18 16 12 10 10 9 7 7 9 9 9 9
4 7 3 6 13 16 7 7 5 3 6 9 19 21 3 5 3 12 14 15 12 12 13 12 13 14 16 16 19 20 20 21 17 15 13 11 9 8 7 7 7 8 9 9
9 3 11 21 3 2 8 15 18 10 11 11 13 34 6 5 5 4 6 6 8 9 11 11 13 15 16 18 19 20 19 19 17 15 13 11 9 8 7 7 7 7 9 9
11 5 7 12 6 2 9 9 11 17 15 31 13 30 12 20 6 5 8 9 7 11 14 12 12 16 17 17 18 19 19 19 16 15 13 11 10 8 7 6 7 6 8 8
8 6 13 20 21 3 6 13 19 24 19 20 26 29 39 34 21 22 17 11 15 15 15 16 15 16 15 16 18 19 19 18 17 15 13 12 10 8 7 6 6 6 6 8
6 11 12 19 23 22 24 18 20 27 28 29 29 25 34 34 26 26 21 17 19 19 15 19 16 15 16 17 18 18 19 18 17 15 13 11 8 7 6 6 5 5 6 7
5 18 19 27 30 32 35 23 36 32 36 30 25 29 35 37 32 30 34 24 27 25 22 18 15 15 17 19 19 18 19 17 16 14 12 10 9 7 6 5 5 5 6 7
10 8 10 22 25 23 15 34 35 42 38 32 32 34 36 34 30 32 32 22 24 27 25 18 17 18 18 20 21 21 19 16 15 13 12 11 9 7 6 4 5 5 6 7
15 20 13 11 8 19 23 24 38 37 36 34 29 37 35 36 34 31 23 19 22 24 24 13 14 14 16 17 18 17 17 16 15 14 13 11 10 8 5 4 4 5 5 7
25 22 11 11 18 21 3 19 25 25 34 29 34 35 36 35 15 32 21 23 25 24 20 14 12 13 16 19 19 18 16 15 14 13 12 11 9 8 6 3 4 4 5 6
25 25 20 13 16 22 20 29 23 5 8 31 29 29 30 7 9 20 24 16 18 18 9 8 10 12 17 18 20 21 18 16 15 13 11 9 7 6 5 4 3 3 5 7
10 14 25 24 23 15 11 9 4 13 21 33 31 27 26 22 20 24 9 4 0 2 8 12 16 15 15 15 17 19 16 15 14 13 12 10 8 7 5 4 1 3 5 7
24 13 13 14 19 27 18 23 25 29 29 24 22 14 11 15 22 19 18 8 8 9 11 14 14 14 13 17 18 15 15 13 12 13 12 9 7 5 5 4 2 2 4 6
23 27 26 20 14 10 14 29 29 31 27 23 17 18 10 15 17 16 13 10 11 11 10 12 14 17 15 16 16 18 15 14 14 13 11 9 8 6 5 4 3 0 2 4
8 15 13 21 23 16 11 12 17 20 24 25 23 22 8 16 13 13 8 8 10 12 13 12 15 16 17 13 14 16 17 15 11 12 11 9 7 7 5 4 3 2 2 4
12 9 8 15 22 22 20 15 14 15 17 14 16 11 16 16 16 17 13 13 13 14 14 15 15 17 18 16 17 16 17 16 14 12 10 9 7 6 5 4 3 1 1 5
22 21 16 19 20 17 16 14 19 24 27 25 21 23 21 19 22 16 15 13 14 16 17 17 18 19 19 16 16 15 14 15 15 13 9 7 6 4 4 3 3 1 3 8
Wind_Direction
99 230 238 244 229 269 269 258 260 266 190 244 254 261 269 281 274 263 270 262 244 232 223 204 199 192 187 188 186 189 185 186 184 187 191 196 197 195 243 220 252 251 282 290
177 238 251 31 216 228 233 260 264 280 233 221 274 272 272 266 267 269 272 269 249 238 221 203 195 194 192 188 190 192 192 187 193 189 177 175 173 233 268 261 252 252 288 286
229 258 78 197 205 205 226 235 254 266 325 231 292 270 235 255 264 269 260 260 251 226 212 200 200 198 193 193 192 192 192 190 189 180 161 158 205 250 240 233 240 260 270 290
241 248 208 197 229 204 238 229 244 263 293 280 1 290 279 249 242 263 271 241 223 214 210 201 200 200 197 195 192 192 188 185 184 179 185 202 218 229 223 269 272 284 295 293
221 179 190 206 229 177 249 102 169 205 254 316 248 268 276 163 242 257 261 257 222 207 198 199 201 201 198 190 189 189 186 184 180 185 194 199 219 239 271 281 285 287 290 280
263 105 219 212 83 85 135 115 135 146 259 249 252 226 270 216 209 248 265 228 203 195 193 201 196 195 195 191 191 186 186 187 184 185 194 203 213 218 231 241 260 264 271 286
191 218 168 177 133 119 196 179 277 253 222 263 144 234 263 282 239 233 253 251 183 176 182 184 187 190 190 193 195 188 189 189 186 190 194 199 207 218 236 244 248 267 276 267
236 252 183 181 219 204 184 217 202 260 278 288 112 248 275 227 252 247 271 264 206 215 204 201 194 194 193 193 196 192 191 190 186 189 191 194 203 211 224 241 262 265 265 271
204 255 98 263 102 183 159 199 238 286 111 280 248 257 232 187 256 249 251 242 240 229 204 204 201 197 195 196 197 194 188 191 187 186 186 191 194 205 215 229 243 255 263 279
252 258 120 121 156 57 233 135 138 198 259 258 275 282 275 234 242 213 237 237 238 221 214 208 204 203 202 200 198 197 191 187 182 182 186 187 191 201 213 231 243 258 276 282
202 217 181 153 204 190 168 202 226 313 227 255 269 266 81 196 221 206 220 231 239 224 215 207 213 206 207 201 197 192 191 184 177 178 178 184 189 194 212 234 257 267 279 281
208 203 231 237 129 323 258 231 212 223 220 235 263 273 111 46 141 191 242 253 239 228 212 213 210 204 202 203 196 193 190 181 175 174 175 185 184 192 212 228 252 266 277 286
168 204 239 251 206 176 213 202 232 242 260 248 231 254 250 268 292 231 241 244 249 228 216 221 213 211 209 202 195 191 189 181 167 169 175 180 190 195 211 237 259 268 279 291
176 171 214 238 252 92 192 226 221 223 233 254 241 263 276 274 273 276 266 230 234 239 230 227 219 216 211 199 194 188 188 177 166 171 177 183 189 190 211 229 248 265 286 297
176 231 237 253 269 280 280 275 256 235 243 243 259 259 262 275 275 270 271 270 270 264 230 233 228 213 204 196 189 186 184 172 167 171 176 181 177 187 207 235 253 276 291 286
196 245 247 253 261 264 259 262 262 266 259 253 255 262 262 268 279 282 274 268 271 269 255 235 220 200 198 192 187 180 177 170 166 170 173 168 176 184 208 230 263 279 274 283
208 216 206 238 227 246 250 237 247 255 261 256 253 253 268 267 264 260 271 273 264 265 263 258 206 202 197 189 180 180 168 156 164 166 164 171 176 185 201 220 248 264 283 295
242 225 228 248 227 228 230 240 235 243 249 257 254 252 255 258 265 273 270 267 259 261 267 246 207 201 189 177 173 161 156 157 162 166 167 172 176 183 185 212 249 268 287 298
217 230 234 231 221 244 172 232 224 226 245 256 249 251 249 255 268 269 261 255 260 265 271 262 204 186 166 166 160 153 152 153 162 171 172 172 173 168 177 203 241 275 294 307
224 227 230 223 232 235 235 236 240 73 248 249 240 249 255 263 246 261 270 241 240 243 249 157 155 157 160 161 156 156 160 158 165 168 165 159 163 164 167 183 251 311 301 294
199 214 227 235 245 246 216 214 102 197 240 244 249 246 250 249 234 253 270 195 321 145 154 146 151 160 160 157 160 156 155 165 155 147 147 150 160 169 167 167 286 297 299 307
220 203 211 230 243 248 218 225 220 235 241 241 258 249 216 238 250 246 254 189 189 176 157 163 151 152 153 158 156 152 150 137 139 140 144 149 156 179 160 158 152 252 297 311
230 225 234 219 232 238 207 222 226 244 253 254 254 257 219 244 243 244 232 203 195 183 170 169 155 145 153 163 156 146 137 145 145 145 144 155 159 173 164 166 139 135 323 325
291 285 282 271 259 283 279 255 255 251 246 254 258 263 226 239 247 243 234 193 181 175 173 165 153 153 150 157 143 131 142 144 147 141 149 151 166 163 171 153 135 102 334 334
275 290 279 284 285 279 281 276 290 302 304 289 282 274 260 255 251 244 238 214 194 176 168 165 162 159 155 153 134 142 145 152 152 150 152 153 157 168 145 114 119 100 289 309
269 280 280 280 301 294 290 301 301 297 293 290 286 282 271 261 259 246 235 222 185 175 165 167 167 157 154 150 143 148 154 152 146 149 154 150 149 145 117 105 123 114 323 351